Hourly Data Report for August 05, 2021

KUGLUKTUK A
NUNAVUT
Current Station Operator: NAVCAN

67°49'00.000" N
115°08'38.000" W
22.60 m
2300903
71938
YCO

Download Data

Hourly Data (August 2021)
Hourly Data Report for August 5, 2021
TIME
LST
Temp Definition
°C
Dew Point Definition
°C
Rel Hum Definition
%
Precip. Amount Definition
mm

Wind Dir Definition
10's deg

Wind Spd Definition
km/h
Visibility Definition
km
Stn Press Definition
kPa
Hmdx Definition


Wind Chill Definition


Weather Definition


00:00 6.1 3.9 86   24 10 6.4 101.40     Smoke
01:00 6.2 3.8 85   25 16 6.4 101.37     Smoke
02:00 5.3 3.8 90   21 12 8.1 101.32     Smoke
03:00 5.4 4.3 92   23 11 6.4 101.30     Smoke
04:00 5.6 4.6 93   22 3 6.4 101.25     Rain,Smoke
05:00 5.4 4.5 94   21 5 8.1 101.20     Rain,Smoke
06:00 6.4 5.0 91   6 6 12.9 101.14     LegendNANA
07:00 7.0 5.1 88   13 9 19.3 101.04     LegendNANA
08:00 8.5 3.6 71   8 9 19.3 101.03     Mostly Cloudy
09:00 8.5 5.2 80   11 9 19.3 100.97     LegendNANA
10:00 9.2 6.2 81   4 9 16.1 100.92     LegendNANA
11:00 9.0 6.3 83   5 14 16.1 100.91     Cloudy
12:00 9.5 6.3 80   8 13 16.1 100.85     LegendNANA
13:00 10.8 6.7 75   6 11 16.1 100.80     LegendNANA
14:00 10.8 6.7 76   7 11 16.1 100.75     Cloudy
15:00 11.8 7.2 73   9 12 19.3 100.68     LegendNANA
16:00 12.3 8.0 75   9 14 19.3 100.59     LegendNANA
17:00 13.0 8.5 74   6 16 19.3 100.52     Cloudy
18:00 11.0 7.8 81   9 20 19.3 100.42     LegendNANA
19:00 11.9 8.3 79   9 17 16.1 100.36     LegendNANA
20:00 12.4 8.5 77   11 16 16.1 100.31     Mostly Cloudy
21:00 11.7 8.8 82   12 12 19.3 100.27     LegendNANA
22:00 11.6 8.4 81   19 3 16.1 100.23     LegendNANA
23:00 10.2 7.0 80   21 13 12.9 100.17     Mostly Cloudy

Notes on Data Quality.

Legend

  • E = Estimated
  • M = Missing
  • NA = Not Available*
  • [empty] = Indicates an unobserved value
Date modified: